Regional Weather Roundup
Issued by NWS

Home | Current Version | Previous Version | Graphics & Text | Print | Product List | Glossary On
Versions: 1 2 3 4 5 6 7 8 9 10 11 12 13 14 15 16 17 18 19 20 21 22 23 24 25 26 27 28 29 30 31 32 33 34 35 36 37 38 39 40 41 42 43 44 45 46 47 48 49
000
ASUS45 KCYS 242110
RWRWY

WYOMING REGIONAL WEATHER ROUNDUP
NATIONAL WEATHER SERVICE CHEYENNE WY
200 PM MST SAT JAN 24 2015

NOTE:  "FAIR" INDICATES FEW OR NO CLOUDS BELOW 12,000 FEET
WITH NO SIGNIFICANT WEATHER AND/OR OBSTRUCTIONS TO VISIBILITY.

WYZ001-242200-
YELLOWSTONE NATIONAL PARK

CITY           SKY/WX    TMP DP  RH WIND       PRES   REMARKS
LK YELLOWSTONE   N/A     28  20  71 W5        30.31R WCI  23
W YELLOWSTONE  NOT AVBL

$$
WYZ002>013-054>058-071-098>099-242200-
NORTHERN WYOMING

CITY           SKY/WX    TMP DP  RH WIND       PRES   REMARKS
JACKSON        CLOUDY    21  19  93 CALM      30.37R
CODY           CLOUDY    46  27  46 W14G21    30.08R
GREYBULL       FAIR      33  25  72 NW6       30.09S WCI  28
WORLAND        FAIR      30  25  81 SW5       30.08F WCI  25
SHERIDAN       LGT RAIN  43  32  65 NW31G44   29.97R
BUFFALO          N/A     45  32  60 N25G38    29.95F
GILLETTE       CLOUDY    47  33  58 NW23G38   29.90R
HULETT           N/A    N/A N/A N/A MISG        N/A
NEWCASTLE      FAIR      45  32  61 NW21G30   29.87S

$$
WYZ014>020-022>026-101>103-242200-
CENTRAL WYOMING

CITY           SKY/WX    TMP DP  RH WIND       PRES   REMARKS
BIG PINEY      FAIR      41  28  60 N21       30.24F
PINEDALE       FAIR      36  28  75 W14       30.25S WCI  27
DUBOIS         FAIR      37  28  70 NW26G36   30.15F WCI  26
LANDER         FAIR      45  28  51 W15       30.08F
RIVERTON       FAIR      40  27  59 N14       30.07S WCI  32
CASPER         CLOUDY    38  23  55 SW23G30   30.05S WCI  27
DOUGLAS        CLOUDY    45  24  43 W26G37    29.98S

$$
WYZ021-027>030-104>119-242200-
SOUTHERN WYOMING

CITY           SKY/WX    TMP DP  RH WIND       PRES   REMARKS
EVANSTON       CLOUDY    35  24  64 SW18      30.37R WCI  24
KEMMERER       CLOUDY    30  25  80 W14       30.35S WCI  20
FORT BRIDGER   FAIR      37  27  68 W28G33    30.35R WCI  24
ROCK SPRINGS   FAIR      37  20  50 W33G41    30.22F WCI  24
DIXON          CLOUDY    33  20  58 SW7       30.30F WCI  27
RAWLINS        CLOUDY    33  18  53 W33G44    30.15F WCI  18
SARATOGA       CLOUDY    36  19  51 SW17G23   30.20F WCI  25
LARAMIE        CLOUDY    39  18  42 W20G28    30.07R WCI  29
CHEYENNE       CLOUDY    46  18  32 W18G31    29.99S
TORRINGTON     FAIR      48  23  37 W18       29.93S
PINE BLUFFS    FAIR      46  21  36 NW31G47   29.95R

$$



USA.gov is the U.S. government's official web portal to all federal, state and local government web resources and services.